Regional Weather Roundup
Issued by NWS Newport/Morehead, NC

Current Version | Previous Version | Graphics & Text | Print | Product List | Glossary Off
Versions: 1 2 3 4 5 6 7 8 9 10 11 12 13 14 15 16 17 18 19 20 21 22 23 24 25 26 27 28 29 30 31 32 33 34 35 36 37 38 39 40 41 42 43 44 45 46 47 48 49 50

000
ASUS42 KMHX 251522
RWRMHX
WEATHER ROUNDUP FOR EASTERN NORTH CAROLINA
NATIONAL WEATHER SERVICE NEWPORT/MOREHEAD CITY NC
1100 AM EDT FRI JUL 25 2014

NOTE: "FAIR" INDICATES FEW OR NO CLOUDS BELOW 12,000 FEET
WITH NO SIGNIFICANT WEATHER AND/OR OBSTRUCTIONS TO VISIBILITY

NCZ015>017-031-032-045>047-102-103-251600-
NORTH COAST

CITY           SKY/WX    TMP DP  RH WIND       PRES   REMARKS
EDENTON        MOSUNNY   78  67  69 NE7       30.05S
ELIZABETH CITY SUNNY     79  63  57 N12       30.05R
KITTY HAWK     SUNNY     78  68  72 N8G16     30.03R
MANTEO         NOT AVBL

$$

NCZ045>047-081-094-103-104-251600-
CENTRAL COAST

CITY           SKY/WX    TMP DP  RH WIND       PRES   REMARKS
FRISCO         MOSUNNY   80  69  69 N8        30.04R
SWANQUARTER      N/A     79 N/A N/A NE7       30.00S

$$

NCZ095-097-098-100-101-251600-
SOUTHERN COAST

CITY           SKY/WX    TMP DP  RH WIND       PRES   REMARKS
BEAUFORT       PTSUNNY   78  70  76 NE8       30.06R
CEDAR ISLAND     N/A     79 N/A N/A VRB7      30.09S
JACKSONVILLE   CLOUDY    75  69  81 NE8       30.06R
NEWPORT        NOT AVBL
PINEY ISLAND   MOSUNNY   76  72  87 N9        30.05R
WILMINGTON     CLOUDY    76  71  85 N3        30.05R


$$

NCZ011>013-027>030-043-044-078>080-089-090>093-098-251600-
COASTAL PLAIN

CITY           SKY/WX    TMP DP  RH WIND       PRES   REMARKS
AHOSKIE        SUNNY     77  64  63 N7        30.06S
CLINTON        SUNNY     78  70  76 N10       30.06R
ELIZABETHTOWN  CLOUDY    77  68  74 E3        30.06R
GOLDSBORO      CLOUDY    74  73  98 N6        30.05S
GREENVILLE     SUNNY     77  68  73 N6        30.07S HAZE
HAVELOCK       MOSUNNY   77  68  73 N7        30.07R
KENANSVILLE    PTSUNNY   74  67  77 N7        30.07R
KINSTON        CLOUDY    75  70  83 N6        30.07S
NEW BERN       PTSUNNY   78  69  73 NE7       30.07R
RICHLANDS      CLOUDY    75  66  73 NE7       30.06S
ROANOKE RAPIDS NOT AVBL
ROCKY MOUNT    SUNNY     78  66  66 NE6       30.07R
WASHINGTON     SUNNY     76  67  73 NE5       30.06S
WHITEVILLE     CLOUDY    73  70  91 NE3       30.05R

$$

AMZ130-135-150-152-154-156-158-170-250-252-270-ANZ085-086-088-633-658-670-251600-
MARINE OBSERVATIONS

STATION/POSITION TIME  TEMP    WIND        PRES    WAVE   SWELL
                       AIR SEA DIR/SP/G            HT/PER HT/PER
                 (UTC) (F)     (DEG/KT/KT) (MB)    (FT/S) (FT/S)
CHESAPEAKE LIGHT NOT AVBL
BUOY 44014       1500   76 78  350/ 14/ 16 1016.0    3/ 8   2/ 8
DUCK             1500   74 75  350/ 13/ 16 1016.4
2E DUCK          1500                        N/A     2/ 4
OREGON INLET     1500   77 77  350/ 10/ 13 1017.3
BUOY 44095       1500      77                N/A     3/ 4
20E OREGON INLET 1400          350/  8/ 10   N/A
HATTERAS CG      1500   78 79  360/ 12/ 13 1017.9
DIAMOND BUOY     1500          VRB 10/ 12  1017.0    3/ 7   2/ 7
CAPE LOOKOUT     1500   76      30/ 11/ 13 1017.6
BEAUFORT LAB     1500   77 80   30/  7/ 10 1017.5
30 SE NEW RIVER  1500   76 81   40/ 12/ 14 1017.9    4/ 6   3/ 6
5 SE WRIGHTSVILL 1500   72 81   60/  6/  8   N/A
BUOY 41002       1437   74 82  320/ 16/ 17 1020.5    5/ 7   2/ 7
BUOY 41004       1500   82 82  260/ 10/ 12 1016.7    4/ 5   3/ 5

$$



USA.gov is the U.S. government's official web portal to all federal, state and local government web resources and services.